Location: Ciochowice
(50.4289°N, 18.5217°E)
Time: 14:53:35
(UTC+01:00)

ISS - Pass Details

Date: 26 January 2019
Orbit: 403 x 411 km, 51.6° (Epoch: 18 February)

Event Time Altitude Azimuth Distance (km) Brightness Sun altitude
Rises 19:13:41 0° 257° (WSW) 2,334 1.2 -26.2°
Reaches altitude 10° 19:15:46 10° 258° (WSW) 1,476 -0.1 -26.5°
Enters shadow 19:17:12 24° 259° (W) 908 -1.4 -26.7°
